Time,TemperatureF,DewpointF,PressureIn,WindDirection,WindDirectionDegrees,WindSpeedMPH,WindSpeedGustMPH,Humidity,HourlyPrecipIn,Conditions,Clouds,dailyrainin,SoftwareType,DateUTC
2013-11-17 00:12:00,34.0,30.0,-100.00,WSW,250,3.0,4.0,84,-99.99,,,-99.99,,2013-11-17 07:12:00,
2013-11-17 00:53:00,34.0,30.0,-100.00,WNW,300,4.0,6.0,84,-99.99,,,-99.99,,2013-11-17 07:53:00,
2013-11-17 01:12:00,34.0,30.0,-100.00,NW,325,4.0,6.0,84,-99.99,,,-99.99,,2013-11-17 08:12:00,
2013-11-17 01:52:00,33.0,29.0,-100.00,NW,325,4.0,5.0,84,-99.99,,,-99.99,,2013-11-17 08:52:00,
2013-11-17 02:12:00,34.0,29.0,-100.00,NW,325,4.0,5.0,84,-99.99,,,-99.99,,2013-11-17 09:12:00,
2013-11-17 02:54:00,33.0,29.0,-100.00,WNW,300,4.0,6.0,84,-99.99,,,-99.99,,2013-11-17 09:54:00,
2013-11-17 03:13:00,33.0,29.0,-100.00,WNW,300,5.0,6.0,84,-99.99,,,-99.99,,2013-11-17 10:13:00,
2013-11-17 03:53:00,33.0,29.0,-100.00,WNW,290,7.0,9.0,84,-99.99,,,-99.99,,2013-11-17 10:53:00,
2013-11-17 04:12:00,33.0,29.0,-100.00,WNW,285,7.0,9.0,84,-99.99,,,-99.99,,2013-11-17 11:12:00,
2013-11-17 04:52:00,33.0,29.0,-100.00,WNW,300,7.0,8.0,84,-99.99,,,-99.99,,2013-11-17 11:52:00,
2013-11-17 05:11:00,33.0,29.0,-100.00,WNW,295,6.0,9.0,84,-99.99,,,-99.99,,2013-11-17 12:11:00,
2013-11-17 05:52:00,33.0,29.0,-100.00,WNW,285,8.0,11.0,84,-99.99,,,-99.99,,2013-11-17 12:52:00,
2013-11-17 06:11:00,33.0,29.0,-100.00,West,280,9.0,11.0,84,-99.99,,,-99.99,,2013-11-17 13:11:00,
2013-11-17 06:52:00,33.0,29.0,-100.00,West,280,11.0,14.0,84,-99.99,,,-99.99,,2013-11-17 13:52:00,
2013-11-17 07:02:00,33.0,29.0,-100.00,West,280,11.0,14.0,84,-99.99,,,-99.99,,2013-11-17 14:02:00,
2013-11-17 07:11:00,33.0,29.0,-100.00,West,280,11.0,14.0,84,-99.99,,,-99.99,,2013-11-17 14:11:00,
2013-11-17 07:52:00,33.0,28.0,-100.00,WNW,290,15.0,21.0,84,-99.99,,,-99.99,,2013-11-17 14:52:00,
2013-11-17 08:11:00,32.0,28.0,-100.00,WNW,290,17.0,24.0,83,-99.99,,,-99.99,,2013-11-17 15:11:00,
2013-11-17 08:54:00,31.0,26.0,-100.00,WNW,290,18.0,24.0,81,-99.99,,,-99.99,,2013-11-17 15:54:00,
2013-11-17 09:13:00,31.0,26.0,-100.00,WNW,285,13.0,26.0,79,-99.99,,,-99.99,,2013-11-17 16:13:00,
2013-11-17 09:53:00,31.0,25.0,-100.00,WNW,300,21.0,27.0,78,-99.99,,,-99.99,,2013-11-17 16:53:00,
2013-11-17 10:12:00,31.0,25.0,-100.00,WNW,300,18.0,27.0,77,-99.99,,,-99.99,,2013-11-17 17:12:00,
2013-11-17 10:52:00,30.0,24.0,-100.00,WNW,290,15.0,22.0,77,-99.99,,,-99.99,,2013-11-17 17:52:00,
2013-11-17 11:12:00,30.0,23.0,-100.00,WNW,295,21.0,25.0,75,-99.99,,,-99.99,,2013-11-17 18:12:00,
2013-11-17 11:52:00,30.0,22.0,-100.00,WNW,300,14.0,21.0,70,-99.99,,,-99.99,,2013-11-17 18:52:00,
2013-11-17 12:12:00,30.0,22.0,-100.00,WNW,300,15.0,19.0,70,-99.99,,,-99.99,,2013-11-17 19:12:00,
2013-11-17 12:52:00,30.0,21.0,-100.00,WNW,295,16.0,22.0,69,-99.99,,,-99.99,,2013-11-17 19:52:00,
2013-11-17 13:12:00,30.0,21.0,-100.00,WNW,295,15.0,21.0,69,-99.99,,,-99.99,,2013-11-17 20:12:00,
2013-11-17 13:52:00,30.0,20.0,-100.00,WNW,290,16.0,20.0,66,-99.99,,,-99.99,,2013-11-17 20:52:00,
2013-11-17 14:12:00,30.0,20.0,-100.00,West,275,17.0,21.0,64,-99.99,,,-99.99,,2013-11-17 21:12:00,
2013-11-17 14:55:00,30.0,18.0,-100.00,WNW,290,14.0,20.0,59,-99.99,,,-99.99,,2013-11-17 21:55:00,
2013-11-17 15:13:00,30.0,18.0,-100.00,WNW,285,13.0,21.0,59,-99.99,,,-99.99,,2013-11-17 22:13:00,
2013-11-17 15:53:00,30.0,18.0,-100.00,WNW,285,14.0,17.0,59,-99.99,,,-99.99,,2013-11-17 22:53:00,
2013-11-17 16:12:00,31.0,18.0,-100.00,West,270,17.0,21.0,59,-99.99,,,-99.99,,2013-11-17 23:12:00,
2013-11-17 16:53:00,29.0,17.0,-100.00,WNW,290,9.0,16.0,61,-99.99,,,-99.99,,2013-11-17 23:53:00,
2013-11-17 17:11:00,29.0,17.0,-100.00,WNW,290,11.0,15.0,62,-99.99,,,-99.99,,2013-11-18 00:11:00,
2013-11-17 17:52:00,26.0,17.0,-100.00,WNW,290,6.0,8.0,69,-99.99,,,-99.99,,2013-11-18 00:52:00,
2013-11-17 18:11:00,25.0,17.0,-100.00,WNW,285,7.0,8.0,70,-99.99,,,-99.99,,2013-11-18 01:11:00,
2013-11-17 18:52:00,24.0,17.0,-100.00,WNW,285,7.0,7.0,73,-99.99,,,-99.99,,2013-11-18 01:52:00,
2013-11-17 19:11:00,24.0,17.0,-100.00,WNW,290,6.0,8.0,73,-99.99,,,-99.99,,2013-11-18 02:11:00,
2013-11-17 19:52:00,22.0,16.0,-100.00,West,280,4.0,6.0,74,-99.99,,,-99.99,,2013-11-18 02:52:00,
2013-11-17 20:11:00,23.0,16.0,-100.00,West,275,6.0,7.0,75,-99.99,,,-99.99,,2013-11-18 03:11:00,
2013-11-17 20:54:00,24.0,18.0,-100.00,WNW,290,7.0,10.0,74,-99.99,,,-99.99,,2013-11-18 03:54:00,
2013-11-17 21:13:00,24.0,17.0,-100.00,West,280,7.0,8.0,74,-99.99,,,-99.99,,2013-11-18 04:13:00,
2013-11-17 21:52:00,23.0,16.0,-100.00,WNW,285,9.0,9.0,74,-99.99,,,-99.99,,2013-11-18 04:52:00,
2013-11-17 22:12:00,22.0,16.0,-100.00,WNW,290,9.0,9.0,74,-99.99,,,-99.99,,2013-11-18 05:12:00,
2013-11-17 22:53:00,21.0,15.0,-100.00,West,270,6.0,8.0,77,-99.99,,,-99.99,,2013-11-18 05:53:00,
2013-11-17 23:12:00,21.0,15.0,-100.00,WSW,250,7.0,7.0,77,-99.99,,,-99.99,,2013-11-18 06:12:00,
2013-11-17 23:52:00,21.0,15.0,-100.00,SE,125,0.0,7.0,78,-99.99,,,-99.99,,2013-11-18 06:52:00,